* Astronomy

Members Login
Post Info TOPIC: Asteroid 2010 GK65


L

Posts: 131039
Date:
RE: Asteroid 2010 GK65
Permalink  
 


The 33 - 75 metre wide asteroid 2010 GK65 will make a close pass (64.5 lunar distances, 0.16588 AU), travelling at 8.92 km/second, to the Earth on the 14th April 2018 @ 03:44 UT 1 day 12:06.

See more

The Lunar Distance (LD), the distance between Earth and the Moon, equals 384,401 km, (or 0.00256 AU).



__________________


L

Posts: 131039
Date:
Permalink  
 

The 34 - 75 metre wide asteroid 2010 GK65 will make a close pass (66.0 lunar distances, 0.1696 AU), travelling at 17.80 km/second, to the Earth-Moon system on the 21st July, 2012 @ 03:56 UT 04:19.

See more

The Lunar Distance (LD), the distance between Earth and the Moon, equals 384,401 km, (or 0.00256 AU).



__________________


L

Posts: 131039
Date:
Permalink  
 

Orbital elements:
2010 GK65 Earth MOID = 0.0050 AU
Epoch 2010 July 23.0 TT = JDT 2455400.5 MPC
M 197.41378 (2000.0) P Q
n 1.11294378 Peri. 83.04396 +0.32572624 -0.94546167
a 0.9221903 Node 347.94579 +0.86332084 +0.29835519
e 0.4421309 Incl. 0.59127 +0.38546016 +0.13071497
P 0.89 H 24.5 G 0.15 U 8

MPEC 2010 - G118


__________________
Page 1 of 1  sorted by
 
Quick Reply

Please log in to post quick replies.



Create your own FREE Forum
Report Abuse
Powered by ActiveBoard